2022-132F (54040 NORAD) Tracking and Keplerian Element Data

This shows tracking and keplerian element data for the satellite.

Feedback or suggestion? Click here.




ElementValue
Catalog54040
Name2022-132F
Epoch Orbit335
Epoch Day308.23614522
Epoch Year2022
RAAN312.3048
Inclination97.1608
Eccentricity0.0122451
Argument of Perigee147.0477
Mean Anonmoly213.8593
Mean Motion15.08076813
Decay Rate0.00046208
L11 54040U 22132F 22308.23614522 .00046208 00000+0 25087-2 0 9996
L22 54040 97.1608 312.3048 0122451 147.0477 213.8593 15.08076813 3353



Live tracking and technical data element details for 2022-132F (NORAD 54040). 2022-132F can be tracked NOW for your location showing map with azimuth and elevation plus other details from your city location.







IsCatalogInMostPopularTable: catalog: 54040, numindb: 9
Update: records affected: 1



GetName: 54040 2022-132F

Hit Count: updated at: Sun, 11 Jun 2023 00:00:43 GMT